Grand Forks, ND

7:14 AM CDT on May 23, 2017 (GMT -0500)
Grand Forks International

Weather History for KGFK - October, 2014

Change the Weather History Date:

Wednesday, October 15, 2014

  Actual Average Record
Temperature  
Mean Temperature 54 °F 44 °F  
Max Temperature 69 °F 55 °F 81 °F (1953)
Min Temperature 38 °F 32 °F 12 °F (1952)
Degree Days  
Heating Degree Days 11 21  
Month to date heating degree days 264 272  
Since 1 July heating degree days 510 623  
Cooling Degree Days 0 0  
Month to date cooling degree days 0 0  
Year to date cooling degree days 395 378  
Growing Degree Days 4 (Base 50)    
Moisture  
Dew Point 36 °F    
Average Humidity 58    
Maximum Humidity 85    
Minimum Humidity 30    
Precipitation  
Precipitation 0.00 in 0.07 in 1.44 in (1984)
Month to date precipitation 0.32 1.04  
Year to date precipitation 22.29 18.32  
Snow  
Snow 0.00 in 0.00 in 0.10 in (2009)
Month to date snowfall 0.0 0.4  
Since 1 July snowfall 0.0 0.4  
Since 1 September snowfall 0.0 0.4  
Snow Depth 0.00 in    
Sea Level Pressure  
Sea Level Pressure 29.86 in    
Wind  
Wind Speed 14 mph (SSE)    
Max Wind Speed 25 mph    
Max Gust Speed 30 mph    
Visibility 10 miles    
Events      
T = Trace of Precipitation, MM = Missing Value Source: NWS Daily Summary

Daily Weather History Graph

Daily Weather History Graph

Search for Another Location

Airport or City:

Trip Planner

Search our weather history database for the weather conditions in past years. The results will help you decide how hot, cold, wet, or windy it might be!

Date:

Astronomy

Oct. 15, 2014 Rise Set
Actual Time 7:48 AM CDT 6:40 PM CDT
Civil Twilight 7:16 AM CDT 7:11 PM CDT
Nautical Twilight 6:40 AM CDT 7:47 PM CDT
Astronomical Twilight 6:04 AM CDT 8:23 PM CDT
Moon No Moon Rise 2:41 PM CDT (10/15)
Length of Visible Light 11h 54m
Length of Day
10h 52m
Waning Gibbous, 51% of the Moon is Illuminated
Oct 15
Waning Gibbous
Oct 15
Last Quarter
Oct 23
New
Oct 30
First Quarter
Nov 6
Full

Hourly Weather History & Observations

Time (CDT) Temp. Windchill Dew Point Humidity Pressure Visibility Wind Dir Wind Speed Gust Speed Precip Events Conditions
12:53 AM 44.1 °F 39.5 °F 37.0 °F 76% 29.96 in 10.0 mi South 8.1 mph - N/A   Clear
1:53 AM 44.1 °F 39.5 °F 37.0 °F 76% 29.96 in 10.0 mi South 8.1 mph - N/A   Clear
2:53 AM 42.1 °F 37.1 °F 35.1 °F 76% 29.96 in 10.0 mi SSE 8.1 mph - N/A   Clear
3:53 AM 39.9 °F 35.1 °F 35.1 °F 83% 29.96 in 10.0 mi South 6.9 mph - N/A   Clear
4:53 AM 39.9 °F 35.1 °F 34.0 °F 79% 29.94 in 10.0 mi SSE 6.9 mph - N/A   Clear
5:53 AM 39.9 °F 35.1 °F 35.1 °F 83% 29.95 in 10.0 mi SSE 6.9 mph - N/A   Scattered Clouds
6:53 AM 41.0 °F 37.1 °F 34.0 °F 76% 29.95 in 10.0 mi South 5.8 mph - N/A   Partly Cloudy
7:53 AM 39.0 °F 34.0 °F 34.0 °F 82% 29.96 in 10.0 mi South 6.9 mph - N/A   Scattered Clouds
8:53 AM 43.0 °F 37.2 °F 36.0 °F 76% 29.95 in 10.0 mi South 10.4 mph - N/A   Partly Cloudy
9:53 AM 50.0 °F - 36.0 °F 59% 29.93 in 10.0 mi South 16.1 mph 23.0 mph N/A   Partly Cloudy
10:53 AM 56.1 °F - 37.0 °F 49% 29.91 in 10.0 mi South 18.4 mph - N/A   Partly Cloudy
11:53 AM 60.1 °F - 37.9 °F 44% 29.92 in 10.0 mi South 17.3 mph - N/A   Scattered Clouds
12:53 PM 64.9 °F - 37.9 °F 37% 29.88 in 10.0 mi South 18.4 mph - N/A   Scattered Clouds
1:53 PM 66.9 °F - 37.9 °F 34% 29.86 in 10.0 mi South 19.6 mph 27.6 mph N/A   Partly Cloudy
2:53 PM 68.0 °F - 36.0 °F 31% 29.83 in 10.0 mi South 21.9 mph 29.9 mph N/A   Scattered Clouds
3:53 PM 69.1 °F - 37.0 °F 31% 29.80 in 10.0 mi South 21.9 mph 25.3 mph N/A   Scattered Clouds
4:53 PM 68.0 °F - 35.1 °F 30% 29.77 in 10.0 mi South 18.4 mph 28.8 mph N/A   Scattered Clouds
5:53 PM 64.9 °F - 37.0 °F 36% 29.76 in 10.0 mi SSE 15.0 mph - N/A   Scattered Clouds
6:53 PM 61.0 °F - 37.0 °F 41% 29.75 in 10.0 mi SSE 13.8 mph - N/A   Scattered Clouds
7:53 PM 57.9 °F - 37.0 °F 46% 29.75 in 10.0 mi SSE 13.8 mph - N/A   Scattered Clouds
8:53 PM 55.9 °F - 37.0 °F 49% 29.73 in 10.0 mi SSE 12.7 mph - N/A   Scattered Clouds
9:53 PM 54.0 °F - 37.0 °F 53% 29.71 in 10.0 mi SSE 13.8 mph - N/A   Partly Cloudy
10:53 PM 53.1 °F - 37.0 °F 55% 29.69 in 10.0 mi SSE 15.0 mph - N/A   Clear
11:53 PM 53.1 °F - 37.0 °F 55% 29.67 in 10.0 mi SSE 17.3 mph - N/A   Clear